Location: Strawberry
(45.6646°N, 111.9596°W)
Time: 20:38:48
(UTC+00:00)

Courier 1B - Pass Details

Date: 09 October 2022
Orbit: 962 x 1209 km, 28.3° (Epoch: 29 November)

Event Time Altitude Azimuth Distance (km) Brightness Sun altitude
Rises 22:17:43 0° 249° (WSW) 4,060 12.0 23.8°
Reaches altitude 10° 22:21:44 10° 230° (SW) 3,059 12.2 23.3°
Maximum altitude 22:26:14 17° 193° (SSW) 2,524 10.7 22.6°
Drops below altitude 10° 22:30:36 10° 156° (SSE) 2,952 10.2 22.0°
Sets 22:34:23 0° 137° (SE) 3,856 10.5 21.5°
